Location: Ariel
(45.9570°N, 122.5700°W)
Time: 05:14:19
(UTC-07:00)

Transit 4A - Pass Details

Date: 20 July 2019
Orbit: 863 x 981 km, 66.8° (Epoch: 18 August)

Event Time Altitude Azimuth Distance (km) Brightness Sun altitude
Rises 11:35:36 0° 326° (NW) 3,675 10.7 57.3°
Reaches altitude 10° 11:38:12 10° 326° (NW) 2,714 10.1 57.6°
Maximum altitude 11:44:33 83° 240° (WSW) 960 9.2 58.4°
Drops below altitude 10° 11:50:41 10° 153° (SSE) 2,622 10.9 59.1°
Sets 11:53:09 0° 152° (SSE) 3,544 11.4 59.4°
